FW2458 Weather Reports


Display with metric or nautical units.
time (UTC)temp
F
wind
direction
speed
MPH
gust
MPH
rain 1hr
in
rain 24hr
in
rain mn
in
humidity
%
barometer
mb
20260906204627 74 73 1.0 4.0 0.00 0.00 0.00 64 1015.1
20260906204127 75 38 1.0 4.0 0.00 0.00 0.00 64 1015.1
20260906203626 75 62 1.0 5.0 0.00 0.00 0.00 64 1015.0
20260906203126 75 24 2.0 5.0 0.00 0.00 0.00 62 1015.0
20260906202624 75 57 1.0 5.0 0.00 0.00 0.00 61 1015.0
20260906202125 76 69 1.0 5.0 0.00 0.00 0.00 63 1015.0
20260906201624 76 59 1.0 5.0 0.00 0.00 0.00 63 1015.0
20260906201121 76 74 2.0 5.0 0.00 0.00 0.00 63 1015.0
20260906200619 75 61 2.0 4.0 0.00 0.00 0.00 62 1015.1
20260906200119 75 72 1.0 6.0 0.00 0.00 0.00 65 1015.0
20260906195618 75 68 1.0 6.0 0.00 0.00 0.00 64 1015.0
20260906195114 75 65 2.0 7.0 0.00 0.00 0.00 64 1014.9
20260906194615 76 65 2.0 7.0 0.00 0.00 0.00 62 1014.9
20260906194113 76 55 1.0 7.0 0.00 0.00 0.00 64 1014.8
20260906193615 75 19 1.0 7.0 0.00 0.00 0.00 64 1014.9
20260906193559 75 177 1.0 6.0 0.00 0.00 0.00 65 1014.8
20260906192609 74 177 1.0 6.0 0.00 0.00 0.00 66 1015.0
20260906192109 74 68 1.0 5.0 0.00 0.00 0.00 69 1015.1
20260906191609 73 69 1.0 5.0 0.00 0.00 0.00 67 1015.0
20260906191112 73 68 2.0 5.0 0.00 0.00 0.00 67 1015.0
20260906190608 74 68 2.0 5.0 0.00 0.00 0.00 67 1015.1
20260906190338 74 71 2.0 6.0 0.00 0.00 0.00 69 1015.0
20260906185607 74 77 2.0 6.0 0.00 0.00 0.00 68 1015.0
20260906185107 74 67 2.0 6.0 0.00 0.00 0.00 65 1015.0
20260906184607 75 89 3.0 7.0 0.00 0.00 0.00 64 1015.0
20260906184109 76 148 3.0 7.0 0.00 0.00 0.00 63 1015.1
20260906184057 77 280 2.0 6.0 0.00 0.00 0.00 63 1015.1
20260906183107 76 348 2.0 7.0 0.00 0.00 0.00 67 1015.1
20260906182606 76 57 2.0 7.0 0.00 0.00 0.00 63 1014.9
20260906182342 76 71 2.0 5.0 0.00 0.00 0.00 66 1015.0
20260906181600 75 67 2.0 5.0 0.00 0.00 0.00 66 1015.1
20260906181100 75 82 2.0 6.0 0.00 0.00 0.00 64 1015.0
20260906180830 75 101 1.0 6.0 0.00 0.00 0.00 65 1015.0
20260906180114 76 88 1.0 6.0 0.00 0.00 0.00 64 1015.0
20260906175823 76 84 2.0 8.0 0.00 0.00 0.00 61 1015.1
20260906175553 76 86 2.0 8.0 0.00 0.00 0.00 62 1015.1
20260906174600 75 188 2.0 4.0 0.00 0.00 0.00 67 1015.1
20260906174059 75 129 2.0 4.0 0.00 0.00 0.00 69 1015.1
20260906173559 74 90 2.0 4.0 0.00 0.00 0.00 69 1015.2
20260906173100 74 73 2.0 5.0 0.00 0.00 0.00 68 1015.4
20260906172559 74 80 1.0 5.0 0.00 0.00 0.00 68 1015.4
20260906172100 74 99 1.0 6.0 0.00 0.00 0.00 69 1015.5
20260906171559 74 77 1.0 6.0 0.00 0.00 0.00 67 1015.3
20260906171100 74 90 1.0 3.0 0.00 0.00 0.00 67 1015.4
20260906170603 74 76 1.0 5.0 0.00 0.00 0.00 69 1015.4
20260906170552 74 79 1.0 5.0 0.00 0.00 0.00 69 1015.5
20260906165832 74 83 1.0 5.0 0.00 0.00 0.00 71 1015.5
20260906165059 74 51 1.0 5.0 0.00 0.00 0.00 68 1015.4
20260906164559 74 59 1.0 7.0 0.00 0.00 0.00 70 1015.5
20260906164100 74 59 2.0 7.0 0.00 0.00 0.00 70 1015.5
20260906163555 74 172 2.0 5.0 0.00 0.00 0.00 73 1015.5
20260906163056 74 61 2.0 6.0 0.00 0.00 0.00 72 1015.4
20260906162555 73 96 2.0 6.0 0.00 0.00 0.00 72 1015.5
20260906162055 73 87 2.0 6.0 0.00 0.00 0.00 71 1015.6
20260906161556 73 86 2.0 6.0 0.00 0.00 0.00 70 1015.5
20260906161056 73 133 2.0 7.0 0.00 0.00 0.00 69 1015.6
20260906160819 73 65 2.0 9.0 0.00 0.00 0.00 71 1015.7
20260906160109 73 80 2.0 9.0 0.00 0.00 0.00 70 1015.7
20260906155554 73 123 2.0 9.0 0.00 0.00 0.00 70 1015.6
20260906155543 74 77 2.0 9.0 0.00 0.00 0.00 68 1015.7
20260906154816 75 67 2.0 6.0 0.00 0.00 0.00 68 1015.7
20260906154049 74 56 2.0 5.0 0.00 0.00 0.00 73 1015.9
20260906153549 73 188 2.0 5.0 0.00 0.00 0.00 74 1015.8
20260906153049 73 62 1.0 5.0 0.00 0.00 0.00 74 1015.8
20260906152548 71 53 1.0 4.0 0.00 0.00 0.00 79 1015.9
20260906152045 71 51 2.0 6.0 0.00 0.00 0.00 75 1015.8
20260906151549 71 76 1.0 6.0 0.00 0.00 0.00 75 1015.9
20260906151058 72 77 1.0 4.0 0.00 0.00 0.00 74 1015.8
20260906150546 72 60 1.0 4.0 0.00 0.00 0.00 74 1015.8
20260906150528 73 69 1.0 4.0 0.00 0.00 0.00 74 1015.9
20260906145539 72 74 1.0 4.0 0.00 0.00 0.00 77 1015.8
20260906145035 72 75 1.0 4.0 0.00 0.00 0.00 77 1015.8
20260906144530 71 74 1.0 4.0 0.00 0.00 0.00 75 1015.9
20260906144031 71 203 1.0 3.0 0.00 0.00 0.00 77 1015.7
20260906143532 70 72 1.0 3.0 0.00 0.00 0.00 78 1015.7
20260906143031 70 72 1.0 3.0 0.00 0.00 0.00 80 1015.7
20260906142532 69 73 1.0 3.0 0.00 0.00 0.00 79 1015.7
20260906142033 69 73 1.0 4.0 0.00 0.00 0.00 79 1015.7
20260906141755 69 73 1.0 4.0 0.00 0.00 0.00 79 1015.6
20260906141257 69 75 1.0 4.0 0.00 0.00 0.00 78 1015.5
20260906140527 69 65 1.0 4.0 0.00 0.00 0.00 78 1015.6
20260906140028 70 61 1.0 5.0 0.00 0.00 0.00 79 1015.6
20260906135528 70 61 1.0 5.0 0.00 0.00 0.00 78 1015.7
20260906135028 70 62 0.0 5.0 0.00 0.00 0.00 78 1015.6
20260906134527 70 62 1.0 5.0 0.00 0.00 0.00 78 1015.6
20260906134512 70 68 1.0 6.0 0.00 0.00 0.00 78 1015.5
20260906133524 70 93 1.0 6.0 0.00 0.00 0.00 77 1015.5
20260906133017 71 54 2.0 5.0 0.00 0.00 0.00 78 1015.5
20260906132725 70 84 2.0 5.0 0.00 0.00 0.00 77 1015.6
20260906132001 70 65 1.0 4.0 0.00 0.00 0.00 82 1015.4
20260906131713 70 62 1.0 5.0 0.00 0.00 0.00 81 1015.5
20260906130943 69 65 0.0 5.0 0.00 0.00 0.00 80 1015.5
20260906130450 69 100 1.0 7.0 0.00 0.00 0.00 81 1015.5
20260906125929 69 100 1.0 7.0 0.00 0.00 0.00 82 1015.4
20260906125419 68 53 1.0 4.0 0.00 0.00 0.00 83 1015.3
20260906124913 68 55 0.0 4.0 0.00 0.00 0.00 84 1015.3
20260906124408 67 57 0.0 4.0 0.00 0.00 0.00 85 1015.3
20260906123857 66 55 0.0 4.0 0.00 0.00 0.00 86 1015.2
20260906123351 65 49 1.0 3.0 0.00 0.00 0.00 87 1015.3
20260906122845 65 49 1.0 3.0 0.00 0.00 0.00 90 1015.2
20260906122335 64 49 1.0 3.0 0.00 0.00 0.00 91 1015.2
20260906122051 63 46 1.0 3.0 0.00 0.00 0.00 92 1015.1
20260906121324 63 46 0.0 3.0 0.00 0.00 0.00 93 1015.1
20260906120813 62 46 0.0 3.0 0.00 0.00 0.00 93 1015.1
20260906120307 62 46 0.0 1.0 0.00 0.00 0.00 93 1015.0
20260906115801 61 46 0.0 1.0 0.00 0.00 0.00 94 1015.0
20260906115251 61 46 0.0 1.0 0.00 0.00 0.00 93 1014.9
20260906114745 61 46 0.0 0.0 0.00 0.00 0.00 93 1015.0
20260906114239 61 46 0.0 0.0 0.00 0.00 0.00 93 1014.9
20260906113950 61 46 0.0 0.0 0.00 0.00 0.00 93 1014.8
20260906113223 60 46 0.0 0.0 0.00 0.00 0.00 93 1014.6
20260906112717 60 46 0.0 0.0 0.00 0.00 0.00 93 1014.6
20260906112442 60 46 0.0 0.0 0.00 0.00 0.00 93 1014.6
20260906111928 60 46 0.0 0.0 0.00 0.00 0.00 93 1014.6
20260906111421 60 46 0.0 0.0 0.00 0.00 0.00 93 1014.4
20260906110645 60 46 0.0 1.0 0.00 0.00 0.00 93 1014.4
20260906110405 60 46 0.0 1.0 0.00 0.00 0.00 93 1014.4
20260906105633 60 46 0.0 2.0 0.00 0.00 0.00 93 1014.4
20260906105123 60 46 0.0 1.0 0.00 0.00 0.00 93 1014.3
20260906104843 60 46 0.0 0.0 0.00 0.00 0.00 93 1014.3
20260906104111 60 46 0.0 0.0 0.00 0.00 0.00 93 1014.2
20260906103601 60 46 0.0 0.0 0.00 0.00 0.00 92 1014.2
20260906103055 60 46 0.0 0.0 0.00 0.00 0.00 92 1014.0
20260906102550 60 46 0.0 0.0 0.00 0.00 0.00 92 1013.9
20260906102306 60 46 0.0 0.0 0.00 0.00 0.00 92 1013.9
20260906101816 60 46 0.0 0.0 0.00 0.00 0.00 92 1013.8
20260906101040 60 46 0.0 0.0 0.00 0.00 0.00 92 1013.8
20260906100744 60 46 0.0 0.0 0.00 0.00 0.00 92 1013.8
20260906100018 60 46 0.0 0.0 0.00 0.00 0.00 91 1013.7
20260906095517 60 46 0.0 0.0 0.00 0.00 0.00 91 1013.7
20260906094513 60 46 0.0 0.0 0.00 0.00 0.00 91 1013.5
20260906094244 60 46 0.0 0.0 0.00 0.00 0.00 91 1013.5
20260906093736 61 46 0.0 0.0 0.00 0.00 0.00 91 1013.4
20260906093008 61 46 0.0 0.0 0.00 0.00 0.00 90 1013.4
20260906092506 61 46 0.0 0.0 0.00 0.00 0.00 90 1013.3
20260906092004 61 46 0.0 0.0 0.00 0.00 0.00 90 1013.2
20260906091502 61 46 0.0 0.0 0.00 0.00 0.00 90 1013.1
20260906091001 62 46 0.0 0.0 0.00 0.00 0.00 90 1013.0
20260906090458 62 46 0.0 0.0 0.00 0.00 0.00 91 1012.9
20260906085954 62 46 0.0 0.0 0.00 0.00 0.00 91 1012.8
20260906085452 62 46 0.0 1.0 0.00 0.00 0.00 90 1012.9
20260906084953 62 46 0.0 1.0 0.00 0.00 0.00 91 1012.9
20260906084450 62 46 0.0 1.0 0.00 0.00 0.00 90 1012.9
20260906084426 62 46 0.0 1.0 0.00 0.00 0.00 91 1012.9
20260906083446 62 46 0.0 2.0 0.00 0.00 0.00 91 1012.9
20260906082942 62 46 0.0 2.0 0.00 0.00 0.00 90 1012.8
20260906082443 62 39 0.0 1.0 0.00 0.00 0.00 90 1012.9
20260906081947 62 39 0.0 0.0 0.00 0.00 0.00 90 1012.9
20260906081443 62 39 0.0 1.0 0.00 0.00 0.00 90 1012.7
20260906080943 62 39 0.0 1.0 0.00 0.00 0.00 90 1012.7
20260906080443 62 39 0.0 1.0 0.00 0.00 0.00 89 1012.7
20260906075942 62 39 0.0 1.0 0.00 0.00 0.00 89 1012.8
20260906075444 62 39 0.0 2.0 0.00 0.00 0.00 90 1012.7
20260906074941 62 39 0.0 2.0 0.00 0.00 0.00 90 1012.7
20260906074439 63 39 0.0 3.0 0.00 0.00 0.00 90 1012.7
20260906073940 63 39 0.0 3.0 0.00 0.00 0.00 90 1012.8
20260906073439 63 42 0.0 1.0 0.00 0.00 0.00 90 1012.8
20260906072938 62 44 0.0 1.0 0.00 0.00 0.00 90 1012.8
20260906072658 62 42 0.0 1.0 0.00 0.00 0.00 90 1012.7
20260906072541 62 42 0.0 1.0 0.00 0.00 0.00 90 1012.8
20260906071921 62 42 0.0 2.0 0.00 0.00 0.00 90 1012.7
20260906070927 62 42 0.0 2.0 0.00 0.00 0.00 90 1012.6
20260906070422 62 42 0.0 0.0 0.00 0.00 0.00 89 1012.6
20260906065920 62 42 0.0 0.0 0.00 0.00 0.00 89 1012.6
20260906065419 62 42 0.0 0.0 0.00 0.00 0.00 89 1012.8
20260906064916 63 42 0.0 0.0 0.00 0.00 0.00 88 1012.8
20260906064413 63 42 0.0 0.0 0.00 0.00 0.00 88 1012.7
20260906064134 63 42 0.0 0.0 0.00 0.00 0.00 88 1012.8
20260906063409 63 42 0.0 1.0 0.00 0.00 0.00 88 1012.8
20260906063135 63 42 0.0 1.0 0.00 0.00 0.00 88 1012.7
20260906062408 63 42 0.0 1.0 0.00 0.00 0.00 87 1012.8
20260906062128 63 42 0.0 0.0 0.00 0.00 0.00 87 1012.8
20260906061405 64 42 0.0 0.0 0.00 0.00 0.00 86 1012.8
20260906060905 64 42 0.0 0.0 0.00 0.00 0.00 86 1012.9
20260906060405 64 42 0.0 1.0 0.00 0.00 0.00 86 1013.0
20260906060122 64 42 0.0 1.0 0.00 0.00 0.00 85 1013.0
20260906055400 65 42 0.0 1.0 0.00 0.00 0.00 85 1013.0
20260906054916 65 42 0.0 3.0 0.00 0.00 0.00 85 1013.1
20260906054355 65 42 0.0 3.0 0.00 0.00 0.00 85 1013.0
20260906053848 65 42 0.0 4.0 0.00 0.00 0.00 85 1013.0
20260906053349 65 42 0.0 4.0 0.00 0.00 0.00 85 1013.0
20260906052851 64 148 0.0 2.0 0.00 0.00 0.00 86 1012.9
20260906052351 64 148 0.0 2.0 0.00 0.00 0.00 86 1013.0
20260906051849 64 146 0.0 2.0 0.00 0.00 0.00 87 1013.1
20260906051350 64 145 0.0 2.0 0.00 0.00 0.00 87 1013.1
20260906051109 64 67 0.0 1.0 0.00 0.00 0.00 87 1013.1
20260906050348 64 67 0.0 1.0 0.00 0.00 0.00 87 1013.1
20260906045850 64 67 0.0 0.0 0.00 0.00 0.00 87 1013.2
20260906045350 64 67 0.0 0.0 0.00 0.00 0.00 87 1013.1
20260906045105 64 67 0.0 0.0 0.00 0.00 0.00 87 1013.2
20260906044348 64 67 0.0 0.0 0.00 0.00 0.00 86 1013.1
20260906043848 65 67 0.0 0.0 0.00 0.00 0.00 86 1013.1
20260906043349 65 67 0.0 0.0 0.00 0.00 0.00 86 1013.0
20260906042851 65 67 0.0 0.0 0.00 0.00 0.00 86 1012.9
20260906042350 65 67 0.0 0.0 0.00 0.00 0.00 86 1012.9
20260906042333 65 67 0.0 0.0 0.00 0.00 0.00 86 1012.8
20260906041613 65 67 0.0 0.0 0.00 0.00 0.00 86 1012.9
20260906040846 65 67 0.0 0.0 0.00 0.00 0.00 86 1013.0
20260906040346 65 67 0.0 0.0 0.00 0.00 0.00 87 1012.8
20260906040116 65 67 0.0 0.0 0.00 0.00 0.00 87 1012.8
20260906035345 65 67 0.0 0.0 0.00 0.00 0.00 87 1012.9
20260906034844 65 67 0.0 0.0 0.00 0.00 0.00 87 1013.1
20260906034346 65 67 0.0 1.0 0.00 0.00 0.00 87 1012.9
20260906033846 65 67 0.0 1.0 0.00 0.00 0.00 87 1012.9
20260906033344 65 67 0.0 0.0 0.00 0.00 0.00 86 1012.9
20260906032842 65 67 0.0 0.0 0.00 0.00 0.00 86 1012.9
20260906032343 65 67 0.0 0.0 0.00 0.00 0.00 87 1012.9
20260906031845 65 67 0.0 0.0 0.00 0.00 0.00 86 1012.8
20260906031339 65 67 0.0 0.0 0.00 0.00 0.00 86 1012.6
20260906030843 65 67 0.0 0.0 0.00 0.00 0.00 86 1012.6
20260906030605 65 67 0.0 0.0 0.00 0.00 0.00 84 1012.7
20260906025840 66 67 0.0 0.0 0.00 0.00 0.00 84 1012.7
20260906025341 66 67 0.0 0.0 0.00 0.00 0.00 84 1012.7
20260906024840 66 67 0.0 1.0 0.00 0.00 0.00 84 1012.6
20260906024340 66 67 0.0 1.0 0.00 0.00 0.00 84 1012.7
20260906024100 66 67 0.0 1.0 0.00 0.00 0.00 84 1012.7
20260906023336 67 67 0.0 1.0 0.00 0.00 0.00 84 1012.7
20260906022835 67 67 0.0 1.0 0.00 0.00 0.00 84 1012.7
20260906022336 67 67 0.0 1.0 0.00 0.00 0.00 84 1012.7
20260906021831 67 67 0.0 1.0 0.00 0.00 0.00 84 1012.7
20260906021544 67 67 0.0 1.0 0.00 0.00 0.00 84 1012.7
20260906020814 67 67 0.0 1.0 0.00 0.00 0.00 85 1012.7
20260906020308 67 67 0.0 1.0 0.00 0.00 0.00 84 1012.6
20260906015804 67 67 0.0 1.0 0.00 0.00 0.00 84 1012.6
20260906015252 67 67 0.0 1.0 0.00 0.00 0.00 83 1012.6
20260906015019 67 67 0.0 1.0 0.00 0.00 0.00 83 1012.5
20260906014458 67 67 0.0 1.0 0.00 0.00 0.00 83 1012.5
20260906013730 67 67 0.0 0.0 0.00 0.00 0.00 83 1012.4
20260906013224 67 67 0.0 0.0 0.00 0.00 0.00 83 1012.4
20260906012718 67 67 0.0 0.0 0.00 0.00 0.00 83 1012.4
20260906012208 67 67 0.0 0.0 0.00 0.00 0.00 84 1012.3
20260906011702 67 67 0.0 0.0 0.00 0.00 0.00 84 1012.4
20260906011155 68 67 0.0 0.0 0.00 0.00 0.00 84 1012.3
20260906010646 68 67 0.0 0.0 0.00 0.00 0.00 85 1012.2
20260906010357 68 67 0.0 0.0 0.00 0.00 0.00 85 1012.2
20260906005634 68 67 0.0 0.0 0.00 0.00 0.00 85 1012.1
20260906005124 68 67 0.0 0.0 0.00 0.00 0.00 84 1012.1
20260906004618 68 67 0.0 0.0 0.00 0.00 0.00 84 1012.0
20260906004113 68 67 0.0 0.0 0.00 0.00 0.00 84 1012.1
20260906003602 68 67 0.0 0.0 0.00 0.00 0.00 84 1012.0
20260906003056 68 67 0.0 0.0 0.00 0.00 0.00 84 1011.9
20260906002550 68 67 0.0 0.0 0.00 0.00 0.00 84 1011.7
20260906002040 68 67 0.0 0.0 0.00 0.00 0.00 84 1011.7
20260906001534 69 67 0.0 0.0 0.00 0.00 0.00 83 1011.6
20260906001028 69 67 0.0 0.0 0.00 0.00 0.00 83 1011.6
20260906000518 69 67 0.0 0.0 0.00 0.00 0.00 83 1011.5
20260906000237 69 67 0.0 0.0 0.00 0.00 0.00 82 1011.5
20260905235506 70 67 0.0 0.0 0.00 0.00 0.00 82 1011.4
20260905234956 70 67 0.0 0.0 0.00 0.00 0.00 81 1011.3
20260905234451 70 67 0.0 0.0 0.00 0.00 0.00 80 1011.3
20260905233944 71 67 0.0 0.0 0.00 0.00 0.00 80 1011.2
20260905233434 71 67 0.0 0.0 0.00 0.00 0.00 80 1011.2
20260905232928 71 67 0.0 0.0 0.00 0.00 0.00 79 1011.2
20260905232422 72 67 0.0 0.0 0.00 0.00 0.00 79 1011.2
20260905231912 72 67 0.0 0.0 0.00 0.00 0.00 78 1011.2
20260905231406 73 67 0.0 0.0 0.00 0.00 0.00 77 1011.3
20260905230859 73 67 0.0 0.0 0.00 0.00 0.00 77 1011.3
20260905230350 73 67 0.0 0.0 0.00 0.00 0.00 76 1011.3
20260905225844 74 67 0.0 0.0 0.00 0.00 0.00 76 1011.1
20260905225339 74 67 0.0 0.0 0.00 0.00 0.00 75 1011.1
20260905224828 74 67 0.0 0.0 0.00 0.00 0.00 74 1011.2
20260905224540 75 67 0.0 0.0 0.00 0.00 0.00 74 1011.2
20260905223815 75 67 0.0 0.0 0.00 0.00 0.00 73 1011.0
20260905223306 75 67 0.0 0.0 0.00 0.00 0.00 71 1011.0
20260905222800 75 67 0.0 0.0 0.00 0.00 0.00 70 1010.9
20260905222254 75 67 0.0 0.0 0.00 0.00 0.00 70 1010.9
20260905221744 76 67 0.0 0.0 0.00 0.00 0.00 70 1010.9
20260905221243 76 67 0.0 0.0 0.00 0.00 0.00 69 1010.8
20260905220744 76 67 0.0 0.0 0.00 0.00 0.00 68 1010.8
20260905220243 76 67 0.0 3.0 0.00 0.00 0.00 68 1010.7
20260905215741 76 67 0.0 3.0 0.00 0.00 0.00 68 1010.7
20260905215240 76 67 0.0 3.0 0.00 0.00 0.00 65 1010.7
20260905214740 76 67 0.0 3.0 0.00 0.00 0.00 66 1010.7
20260905214504 76 67 1.0 3.0 0.00 0.00 0.00 65 1010.6
20260905213741 76 67 0.0 3.0 0.00 0.00 0.00 67 1010.7
20260905213239 76 67 0.0 1.0 0.00 0.00 0.00 69 1010.6
20260905212738 76 67 1.0 3.0 0.00 0.00 0.00 69 1010.7
20260905212238 76 67 1.0 3.0 0.00 0.00 0.00 68 1010.7
20260905211735 76 68 1.0 3.0 0.00 0.00 0.00 68 1010.6
20260905211450 76 68 1.0 3.0 0.00 0.00 0.00 67 1010.5
20260905210734 76 67 0.0 3.0 0.00 0.00 0.00 67 1010.5
20260905210234 76 67 0.0 3.0 0.00 0.00 0.00 68 1010.5
20260905205735 76 63 1.0 3.0 0.00 0.00 0.00 69 1010.5
20260905205235 76 63 1.0 3.0 0.00 0.00 0.00 67 1010.6